Vorticity
nan nan nan nan nan nan nan nan nan nan nan nan nan nan nan nan nan nan nan nan nan nan nan nan nan nan nan nan nan nan nan nan nan nan nan nan nan nan nan nan nan nan nan nan nan nan nan nan nan nan nan nan nan nan nan nan nan nan nan nan nan nan nan nan nan nan nan nan nan
nan 9 9 9 10 11 10 10 9 8 8 8 8 8 8 9 9 8 7 8 7 8 8 8 7 6 5 6 9 10 11 9 8 8 9 10 10 9 9 9 9 9 9 10 11 11 10 12 14 13 11 10 9 9 9 9 8 7 8 10 11 11 12 14 18 22 23 18 nan
nan 10 10 9 8 9 9 9 7 6 7 9 8 8 8 9 9 8 7 6 5 8 10 10 7 6 6 8 9 10 10 10 9 9 9 9 9 9 10 9 8 9 10 10 10 11 10 11 13 13 12 10 9 10 10 9 8 7 6 7 10 11 11 10 11 17 22 26 nan
nan 9 9 7 6 8 9 8 6 7 9 10 8 8 9 10 9 8 7 6 8 10 11 10 8 7 8 8 8 9 9 9 10 9 9 9 9 10 10 10 9 8 9 9 10 10 10 12 12 11 10 10 11 11 10 9 9 7 6 6 8 10 11 10 10 12 13 17 nan
nan 8 8 6 6 9 9 7 6 8 10 9 7 8 9 9 8 7 7 8 8 7 7 9 9 8 8 8 9 9 9 10 11 10 9 9 9 9 9 10 10 9 8 8 9 10 10 13 12 10 9 10 12 11 9 9 10 9 8 8 8 9 9 10 10 10 10 11 nan
nan 7 6 5 7 9 9 7 7 9 9 8 6 6 7 7 5 4 4 5 4 4 7 10 10 9 9 10 10 10 10 10 11 11 10 9 8 8 8 9 11 11 9 8 9 10 11 13 12 10 9 10 9 9 9 11 11 11 10 10 8 9 9 11 10 9 10 11 nan
nan 6 6 6 8 9 8 7 9 10 10 9 8 7 6 4 3 3 4 5 6 7 10 11 9 9 9 10 10 10 9 11 11 11 10 9 8 8 9 10 11 11 9 9 9 11 11 12 12 10 10 10 8 6 9 12 13 12 11 10 9 9 9 9 9 9 9 10 nan
nan 8 8 8 9 8 8 9 9 9 9 8 8 7 6 5 5 6 7 8 8 9 11 10 8 8 9 10 10 9 9 10 11 11 10 9 8 9 9 10 10 9 8 8 9 10 12 12 11 10 10 11 9 7 8 11 14 14 12 11 11 10 10 8 9 10 9 8 nan
nan 8 8 9 9 8 9 10 9 8 8 6 6 6 7 7 8 9 10 10 8 9 11 11 8 8 9 9 9 9 9 10 10 10 10 9 9 10 11 11 10 9 7 7 8 9 12 12 11 11 11 10 9 8 8 11 13 14 13 11 11 11 12 11 12 11 8 6 nan
nan 8 9 9 9 9 10 11 11 10 9 9 8 9 9 9 10 10 10 8 7 10 12 11 9 8 8 8 9 9 9 10 10 10 9 9 10 11 12 11 10 9 8 7 7 8 10 11 11 11 11 10 9 9 10 11 13 13 14 12 10 11 11 12 11 10 7 6 nan
nan 9 9 9 9 10 10 11 12 12 12 11 11 11 13 15 14 12 10 7 9 13 15 12 9 8 8 8 8 8 9 11 11 10 9 9 10 11 12 11 10 9 9 10 9 9 9 9 9 9 10 9 8 8 9 10 11 12 14 13 11 11 10 11 10 9 8 6 nan
nan 10 10 9 9 10 10 11 12 12 11 10 12 15 19 23 21 19 17 15 17 18 16 11 9 8 8 8 8 9 9 11 12 11 9 9 10 10 11 11 10 9 10 11 11 10 10 10 9 9 9 10 10 9 8 9 10 10 11 12 12 12 10 10 11 11 11 8 nan
nan 10 10 10 10 10 10 11 12 11 11 10 12 16 20 22 21 22 22 21 22 19 14 9 8 8 8 9 9 9 9 11 12 11 10 10 10 10 10 10 10 10 11 11 11 11 10 10 10 9 9 10 11 10 10 9 10 9 10 11 12 12 10 10 11 12 13 11 nan
nan 10 10 10 10 11 11 12 12 12 11 10 12 14 15 13 13 15 16 17 16 15 11 9 8 8 9 10 10 10 10 11 11 11 10 10 10 10 10 10 10 11 11 12 11 11 11 11 10 10 10 10 10 11 11 10 10 9 9 9 10 11 11 11 11 12 12 13 nan
nan 11 11 11 10 11 12 13 13 12 10 11 12 12 12 9 9 10 11 11 11 11 10 9 8 8 8 10 11 11 11 12 11 10 10 9 9 9 9 9 9 11 11 12 12 11 11 11 11 11 10 10 10 10 10 10 10 10 9 9 9 10 10 11 12 12 11 12 nan
nan 12 12 12 10 10 12 13 12 11 10 10 10 11 11 10 9 9 9 11 11 10 9 9 9 8 8 9 10 12 12 12 11 11 10 9 8 8 8 8 8 9 10 12 12 11 10 11 11 11 11 10 10 10 10 10 10 10 10 9 9 9 10 11 12 12 12 12 nan
nan 13 13 12 10 10 11 12 12 10 9 9 10 11 12 11 10 8 8 10 12 10 10 10 10 9 9 9 10 11 12 13 12 11 10 9 8 8 8 7 7 8 9 10 11 10 10 10 11 11 10 10 10 10 10 10 10 9 9 10 9 9 10 11 12 12 13 13 nan
nan 14 13 11 10 9 10 11 11 10 10 9 11 11 11 11 10 9 8 9 11 11 10 10 11 11 10 9 10 11 12 13 13 12 11 10 9 9 8 7 7 8 8 9 10 9 9 10 11 11 11 10 10 10 10 10 10 9 9 9 9 9 9 10 11 13 13 14 nan
nan 13 12 11 10 9 9 10 11 11 11 11 11 11 10 10 11 11 10 9 10 11 11 11 11 11 11 10 10 11 12 12 13 12 11 10 10 9 9 8 7 8 8 9 9 9 9 9 10 11 11 11 10 10 10 10 10 10 9 8 8 8 8 8 10 11 12 13 nan
nan 12 12 10 9 9 9 10 10 11 11 11 11 11 10 10 10 11 10 9 10 11 12 12 11 11 11 10 10 10 11 12 12 11 10 10 10 9 9 8 7 7 7 8 9 9 9 9 9 10 10 10 10 10 10 10 10 10 9 8 7 7 8 7 8 9 10 12 nan
nan 11 11 10 9 10 11 11 10 10 10 10 11 11 11 10 10 10 10 10 10 11 11 11 11 11 10 10 10 10 10 11 12 12 11 10 9 9 8 8 7 7 7 8 9 10 10 10 9 10 9 9 9 9 10 10 10 10 10 10 9 8 8 7 7 8 9 10 nan
nan 11 11 10 9 9 11 11 11 11 10 10 11 11 11 10 10 10 10 10 10 10 10 10 10 10 10 10 10 10 11 11 11 12 13 11 10 9 9 9 9 8 7 7 7 9 9 9 9 9 10 9 9 10 10 10 10 10 11 11 10 9 8 8 8 7 8 8 nan
nan 11 12 11 9 9 11 12 12 11 10 10 10 11 11 10 9 10 10 11 10 10 10 9 9 9 10 10 10 10 10 11 11 12 14 14 12 11 10 10 9 7 6 5 6 8 8 7 8 9 9 9 9 9 10 10 10 10 10 10 9 9 9 9 9 8 8 8 nan
nan 12 12 11 10 11 11 12 12 11 10 10 11 11 12 11 10 10 10 11 10 10 10 10 9 9 10 10 10 10 10 10 10 11 12 14 13 12 10 9 8 7 6 8 12 13 12 10 9 8 8 8 8 9 9 10 10 10 9 9 9 9 9 10 10 9 8 8 nan
nan 11 11 11 11 12 12 11 11 11 10 10 10 11 12 11 11 10 10 10 10 10 10 10 10 10 10 10 10 10 10 9 9 9 10 11 12 12 11 9 8 8 10 16 19 16 14 14 12 11 9 8 9 8 9 9 10 10 9 9 9 9 8 8 9 9 8 7 nan
nan 11 10 11 12 12 11 11 11 11 11 10 10 11 11 12 11 11 10 10 10 9 9 10 10 11 11 10 10 10 10 10 10 10 10 10 11 11 11 10 9 11 16 21 18 13 11 12 12 12 11 10 10 9 8 8 9 10 11 10 10 9 9 8 7 7 7 6 nan
nan 10 10 11 11 12 11 11 11 11 10 10 10 11 11 12 12 11 11 10 9 9 9 9 10 9 9 9 9 10 11 11 11 12 11 11 11 11 11 11 11 15 22 24 16 11 9 9 9 10 11 12 11 10 9 8 8 10 11 11 11 10 9 8 6 5 5 5 nan
nan 9 9 10 11 11 10 10 10 10 10 11 11 12 12 12 12 11 11 10 10 10 10 9 9 9 9 9 9 9 11 12 13 13 13 12 11 11 11 11 13 20 25 23 14 10 9 9 8 9 9 11 9 9 8 7 7 8 10 11 10 10 9 8 7 6 6 7 nan
nan 9 9 10 10 10 10 9 9 10 10 11 13 13 13 12 11 11 11 11 11 11 11 11 11 11 11 10 10 10 11 12 13 14 14 13 12 11 11 13 16 21 24 19 12 11 10 10 9 8 8 8 8 9 9 8 8 8 9 10 10 10 10 10 10 9 9 9 nan
nan 9 9 10 11 10 10 9 9 10 12 12 13 13 13 12 11 11 10 11 11 12 13 13 13 13 12 12 11 11 11 12 13 13 13 13 13 13 13 14 17 20 20 17 12 12 11 10 9 8 7 7 8 9 10 11 11 10 9 10 10 11 11 11 11 11 11 10 nan
nan 10 10 10 10 10 10 9 9 10 11 13 13 13 12 11 10 10 10 10 11 12 13 13 13 13 13 13 13 12 12 12 12 12 12 12 12 12 13 14 17 19 19 16 13 12 12 11 10 9 8 7 6 8 10 11 11 11 10 10 11 12 12 10 9 10 11 12 nan
nan 11 11 10 10 10 10 9 9 9 10 12 13 13 12 10 10 10 10 10 10 10 11 12 11 11 11 11 12 11 11 12 12 12 12 11 11 11 11 12 15 17 18 15 12 12 12 12 12 11 10 8 7 9 11 10 9 9 9 10 11 12 13 12 10 9 10 12 nan
nan 11 12 11 11 10 10 9 8 8 9 10 12 12 11 11 11 10 11 11 10 9 9 9 9 9 9 9 9 9 10 10 10 10 11 12 12 12 11 10 11 14 15 13 11 11 11 12 12 12 11 9 7 9 10 10 9 9 10 10 10 10 11 12 11 10 10 11 nan
nan 10 11 11 11 11 10 9 8 8 8 9 10 11 12 11 10 10 11 11 11 10 9 9 9 9 9 9 8 8 9 9 8 9 10 11 12 13 13 13 13 14 14 11 10 10 10 10 10 10 9 7 7 9 11 12 12 12 12 11 10 10 10 10 11 10 10 11 nan
nan 9 10 10 11 11 10 9 8 8 8 8 9 10 10 10 9 10 10 11 11 10 10 10 10 10 10 10 10 9 9 9 9 9 10 12 12 12 13 15 16 15 13 11 10 10 9 8 8 7 6 4 7 9 10 9 10 10 11 11 10 10 10 10 10 10 10 10 nan
nan 9 10 10 10 10 9 8 8 8 8 8 8 9 9 10 9 9 9 9 9 10 10 10 10 10 11 11 11 10 10 9 9 9 10 11 12 11 11 13 14 13 12 12 11 10 9 8 6 5 4 4 7 8 8 6 6 6 7 8 8 8 9 10 10 11 11 11 nan
nan 9 10 11 11 10 9 8 8 8 8 8 8 8 8 8 9 9 9 9 9 9 10 10 10 9 9 10 11 11 12 11 10 10 9 10 11 10 10 11 11 11 11 13 12 11 9 8 6 4 4 5 8 8 8 7 6 5 5 5 5 6 8 8 8 10 12 14 nan
nan 9 9 11 11 11 10 9 8 8 8 8 8 8 8 8 8 9 9 9 9 9 9 9 9 9 10 10 10 10 12 12 12 11 9 8 9 10 10 10 11 11 12 13 13 12 11 9 7 6 7 9 9 9 8 8 8 8 6 4 4 5 8 9 8 8 10 13 nan
nan 9 9 10 11 12 12 12 10 9 8 8 8 8 9 9 10 10 9 9 9 8 8 8 9 9 10 11 10 9 9 10 11 11 10 9 9 10 11 10 11 12 13 14 13 12 11 9 8 7 8 9 10 9 9 9 9 9 8 6 5 5 7 9 9 8 8 8 nan
nan 9 8 8 10 12 13 14 12 11 10 9 9 9 9 10 10 10 9 9 9 9 8 7 8 9 10 9 9 8 8 10 10 10 11 10 9 8 9 9 10 10 11 11 12 11 10 9 7 6 5 7 9 10 10 9 9 9 9 8 7 6 6 8 9 9 8 5 nan
nan nan nan nan nan nan nan nan nan nan nan nan nan nan nan nan nan nan nan nan nan nan nan nan nan nan nan nan nan nan nan nan nan nan nan nan nan nan nan nan nan nan nan nan nan nan nan nan nan nan nan nan nan nan nan nan nan nan nan nan nan nan nan nan nan nan nan nan nan
CAPE
3 5 5 9 13 13 14 11 5 5 4 3 3 3 3 4 3 2 2 4 13 nan nan nan 1 4 4 3 3 3 2 0 0 nan nan nan nan nan nan nan nan nan nan nan nan nan nan nan nan nan nan nan nan nan nan nan nan 0 0 0 1 1 1 1 6 6 10 11 6
3 6 6 9 14 14 17 18 12 12 7 5 3 3 3 3 3 3 3 4 18 3 3 nan 0 3 3 3 2 2 2 2 0 nan nan nan nan nan nan nan nan nan nan nan nan nan nan 0 nan nan nan nan nan nan nan nan nan nan nan 0 0 0 0 1 1 1 nan 18 9
5 7 7 6 8 8 14 18 18 18 10 4 3 2 2 2 2 3 3 3 10 13 13 2 2 3 3 3 3 3 3 2 nan nan nan nan nan nan nan nan nan nan nan nan nan nan nan nan nan nan nan nan nan nan nan nan nan nan nan nan 0 nan nan 0 1 1 1 nan 23
4 7 7 8 9 9 13 17 18 18 14 7 3 3 3 3 4 3 3 2 5 13 13 1 2 4 4 5 3 3 1 1 nan nan nan nan nan nan nan nan nan nan nan nan nan nan nan nan nan nan nan nan nan nan nan nan nan nan nan nan nan 0 0 0 nan nan 0 0 0
2 4 4 8 10 10 11 13 19 19 17 15 7 6 6 5 5 3 3 3 5 12 12 nan 0 2 2 3 4 4 0 nan nan nan nan nan nan nan nan nan nan nan nan nan nan nan nan nan nan nan nan nan nan nan nan nan nan nan nan nan nan nan nan 0 0 0 nan nan 0
4 3 3 6 8 8 10 12 17 17 21 22 14 9 9 5 5 4 4 3 3 12 12 1 0 1 1 1 2 2 nan nan nan nan nan nan nan nan nan nan nan nan nan nan nan nan nan nan nan nan nan nan nan nan nan nan nan nan nan nan nan nan nan nan 0 0 nan nan nan
7 6 6 6 5 5 8 12 15 15 19 20 20 12 12 6 6 5 5 3 2 7 7 0 nan 0 0 1 1 1 nan nan nan nan nan nan nan nan nan nan nan nan nan nan nan nan nan nan nan nan nan nan nan nan nan nan nan nan nan nan nan nan nan nan nan nan nan nan nan
8 6 6 5 4 4 6 7 16 16 17 21 22 15 15 9 8 7 7 5 3 8 8 nan nan 0 0 1 nan nan nan nan nan nan nan nan nan nan nan nan nan nan nan nan nan nan nan nan nan nan nan nan nan nan nan nan nan nan nan nan nan nan nan nan nan nan nan nan nan
9 7 7 6 4 4 4 4 11 11 15 16 17 14 14 10 7 7 7 6 5 9 9 nan nan nan nan nan nan nan nan nan nan nan nan nan nan nan nan nan nan nan nan nan nan nan nan nan nan nan nan nan nan nan nan nan nan nan nan nan nan nan nan nan nan nan nan nan nan
10 9 9 6 5 5 4 6 8 8 11 9 9 8 8 9 6 3 3 5 4 8 8 nan nan nan nan nan nan nan nan nan nan nan nan nan nan nan nan nan nan nan nan nan nan nan nan nan nan nan nan nan nan nan nan nan nan nan nan nan nan nan nan nan nan nan nan nan nan
9 9 9 7 7 7 8 9 7 7 7 6 3 1 1 1 nan nan nan nan 1 9 9 nan nan nan nan nan nan nan nan nan nan nan nan nan nan nan nan nan nan nan nan nan nan nan nan nan nan nan nan nan nan nan nan nan nan nan nan nan nan nan nan nan nan nan nan nan nan
6 7 7 7 9 9 9 8 6 6 4 4 1 1 1 0 nan nan nan 0 6 1 1 nan nan nan nan nan nan nan nan nan nan nan nan nan nan nan nan nan nan nan nan nan nan nan nan nan nan nan nan nan nan nan nan nan nan nan nan nan nan nan nan nan nan nan nan nan nan
4 7 7 9 8 8 9 6 5 5 3 1 2 8 8 3 3 10 10 11 4 nan nan nan nan nan nan nan nan nan nan nan nan nan nan nan nan nan nan nan nan nan nan nan nan nan nan nan nan nan nan nan nan nan nan nan nan nan nan nan nan nan nan nan nan nan nan nan nan
3 7 7 10 8 8 9 6 7 7 4 3 11 18 18 2 1 0 0 1 nan nan nan nan nan nan nan nan nan nan nan nan nan nan nan nan nan nan nan nan nan nan nan nan nan nan nan nan nan nan nan nan nan nan nan nan nan nan nan nan nan nan nan nan nan nan nan nan nan
3 7 7 9 8 8 7 6 7 7 9 10 15 10 10 2 1 0 0 0 0 nan nan nan nan nan nan nan nan nan nan nan nan nan nan nan nan nan nan nan nan nan nan nan nan nan nan nan nan nan nan nan nan nan nan nan nan nan nan nan nan nan nan nan nan nan nan nan nan
2 5 5 5 5 5 4 7 11 11 12 8 6 4 4 2 0 0 0 0 nan nan nan nan nan nan nan nan nan nan nan nan nan nan nan nan nan nan nan nan nan nan nan nan nan nan nan nan nan nan nan nan nan nan nan nan nan nan nan nan nan nan nan nan nan nan nan nan nan
nan 3 3 3 4 4 4 6 8 8 8 4 3 2 2 1 nan 0 0 nan nan nan nan nan nan nan nan nan nan nan nan nan nan nan nan nan nan nan nan nan nan nan nan nan nan nan nan nan nan nan nan nan nan nan nan nan nan nan nan nan nan nan nan nan nan nan nan nan nan
2 3 3 3 5 5 6 6 4 4 4 1 1 1 1 nan nan nan nan nan nan nan nan nan nan nan nan nan nan nan nan nan nan nan nan nan nan nan nan nan nan nan nan nan nan nan nan nan nan nan nan nan nan nan nan nan nan nan nan nan nan nan nan nan nan nan nan nan nan
0 1 1 2 4 4 4 6 4 4 3 1 1 0 0 nan nan nan nan nan nan nan nan nan nan nan nan nan nan nan nan nan nan nan nan nan nan nan nan nan nan nan nan nan nan nan nan nan nan nan nan nan nan nan nan nan nan nan nan nan nan nan nan nan nan nan nan nan nan
nan nan nan 0 2 2 4 4 3 3 3 1 1 0 0 nan nan nan nan nan nan nan nan nan nan nan nan nan nan nan nan nan nan nan nan nan nan nan nan nan nan nan nan nan nan nan nan nan nan nan nan nan nan nan nan nan nan nan nan nan nan nan nan nan nan nan nan nan nan
nan nan nan nan 1 1 3 4 1 1 1 1 0 0 0 nan nan nan nan nan nan nan nan nan nan nan nan nan nan nan nan nan nan nan nan nan nan nan nan nan nan nan nan nan nan nan nan nan nan nan nan nan nan nan nan nan nan nan nan nan nan nan nan nan nan nan nan nan nan
nan nan nan nan 0 0 2 2 2 2 1 nan 0 nan nan nan nan nan nan nan nan nan nan nan nan nan nan nan nan nan nan nan nan nan nan nan nan nan nan nan nan nan nan nan nan nan nan nan nan nan nan nan nan nan nan nan nan nan nan nan nan nan nan nan nan nan nan nan nan
nan nan nan nan nan nan 1 1 1 1 0 0 nan nan nan nan nan nan nan nan nan nan nan nan nan nan nan nan nan nan nan nan nan nan nan nan nan nan nan nan nan nan nan nan nan nan nan nan nan nan nan nan nan nan nan nan nan nan nan nan nan nan nan nan nan nan nan nan nan
nan nan nan nan nan nan nan 0 0 0 nan nan nan nan nan nan nan nan nan nan nan nan nan nan nan nan nan nan nan nan nan nan nan nan nan nan nan nan nan nan nan nan nan nan nan nan nan nan nan nan nan nan nan nan nan nan nan nan nan nan nan nan nan nan nan nan nan nan nan
nan nan nan nan nan nan nan nan nan nan nan nan nan nan nan nan nan nan nan nan nan nan nan nan nan nan nan nan nan nan nan nan nan nan nan nan nan nan nan nan nan nan nan nan 2 2 1 nan nan nan nan nan nan nan nan nan nan nan nan nan nan nan nan nan nan nan nan nan nan
nan nan nan nan nan nan nan nan nan nan nan nan nan nan nan nan nan nan nan nan nan nan nan nan nan nan nan nan nan nan nan nan nan nan nan nan nan nan nan nan nan nan nan 2 4 4 3 1 nan nan nan nan nan nan nan nan nan nan nan nan nan nan nan nan nan nan nan nan nan
nan nan nan nan nan nan nan nan nan nan nan nan nan nan nan nan nan nan nan nan nan nan nan nan nan nan nan nan nan nan nan nan nan nan nan nan nan nan nan nan nan nan nan 4 6 6 5 3 1 1 nan nan nan nan nan nan nan nan nan nan nan nan nan nan nan nan nan nan nan
nan nan nan nan nan nan nan nan nan nan nan nan nan nan nan nan nan nan nan nan nan nan nan nan nan nan nan nan nan nan nan nan nan nan nan nan nan nan nan nan nan nan nan 7 6 6 6 6 4 4 1 nan nan nan nan nan nan nan nan nan nan nan nan nan nan nan nan nan nan
nan nan nan nan nan nan nan nan nan nan nan nan nan nan nan nan nan nan nan nan nan nan nan nan nan nan nan nan nan nan nan nan nan nan nan nan nan nan nan nan nan 4 4 9 8 8 7 7 7 7 4 nan nan nan nan nan nan nan nan nan nan nan nan nan nan nan nan nan nan
nan nan nan nan nan nan nan nan nan nan nan nan nan nan nan nan nan nan nan nan nan nan nan nan nan nan nan nan nan nan nan nan nan nan nan nan nan nan nan nan nan 4 4 13 12 12 9 8 9 9 8 3 nan nan nan nan nan nan nan nan nan nan nan nan nan nan nan nan nan
nan nan nan nan nan nan nan nan nan nan nan nan nan nan nan nan nan nan nan nan nan nan nan nan nan nan nan nan nan nan nan nan nan nan nan nan nan nan nan nan nan 7 7 15 13 13 12 10 9 9 8 6 nan nan nan nan nan nan nan nan nan nan nan nan nan nan nan nan nan
nan nan nan nan nan nan nan nan nan nan nan nan nan nan nan nan nan nan nan nan nan nan nan nan nan nan nan nan nan nan nan nan nan nan nan nan nan nan nan nan nan 6 6 14 13 13 13 12 9 9 8 7 1 nan nan nan nan nan nan nan nan nan nan nan nan nan nan nan nan
nan nan nan nan nan nan nan nan nan nan nan nan nan nan nan nan nan nan nan nan nan nan nan nan nan nan nan nan nan nan nan nan nan nan nan nan nan nan nan nan nan 10 10 11 9 9 9 8 8 8 7 6 nan nan nan nan nan nan nan nan nan nan nan nan nan nan nan nan nan
nan nan nan nan nan nan nan nan nan nan nan nan nan nan nan nan nan nan nan nan nan nan nan nan nan nan nan nan nan nan nan nan nan nan nan nan nan nan nan nan nan 12 12 12 8 8 7 6 6 6 4 2 nan nan nan nan nan nan nan nan nan nan nan nan nan nan nan nan nan
nan nan nan nan nan nan nan nan nan nan nan nan nan nan nan nan nan nan nan nan nan nan nan nan nan nan nan nan nan nan nan nan nan nan nan nan nan nan nan nan 0 15 15 13 10 10 7 5 4 4 3 1 nan nan nan nan nan nan nan nan nan nan nan nan nan nan nan nan nan
nan nan nan nan nan nan nan nan nan nan nan nan nan nan nan nan nan nan nan nan nan nan nan nan nan nan nan nan nan nan nan nan nan nan nan nan nan nan nan nan 0 15 15 17 13 13 9 7 4 4 2 nan nan nan nan nan nan nan nan nan nan nan nan nan nan nan nan nan nan
nan nan nan nan nan nan nan nan nan nan nan nan nan nan nan nan nan nan nan nan nan nan nan nan nan nan nan nan nan nan nan nan nan nan nan nan nan nan nan nan nan 13 13 17 16 16 12 9 6 6 2 nan nan nan nan nan nan nan nan nan nan nan nan nan nan nan nan nan nan
nan nan nan nan nan nan nan nan nan nan nan nan nan nan nan nan nan nan nan nan nan nan nan nan nan nan nan nan nan nan nan nan nan nan nan nan nan nan nan nan nan 4 4 18 18 18 14 11 7 7 3 nan nan nan nan nan nan nan nan nan nan nan nan nan nan nan nan nan nan
nan nan nan nan nan nan nan nan nan nan nan nan nan nan nan nan nan nan nan nan nan nan nan nan nan nan nan nan nan nan nan nan nan nan nan nan nan nan nan nan nan 1 1 17 19 19 15 13 9 9 5 nan nan nan nan nan nan nan nan nan nan nan nan nan nan nan nan nan nan
nan nan nan nan nan nan nan nan nan nan nan nan nan nan nan nan nan nan nan nan nan nan nan nan nan nan nan nan nan nan nan nan nan nan nan nan nan 0 0 nan nan 1 1 16 19 19 17 15 12 12 8 1 nan nan nan nan nan nan nan nan nan nan nan nan nan nan nan nan 0
nan nan nan nan nan nan nan nan nan nan nan nan nan nan nan nan nan nan nan nan nan nan nan nan nan nan nan nan nan nan nan nan nan nan nan nan 0 3 3 nan nan nan nan 10 17 17 18 15 12 12 8 nan nan nan nan nan nan nan nan nan nan nan nan nan nan nan nan nan nan